STARLINK-33990, 63840

Orbit data source: Space-Track

STARLINK-33990, 63840 is a payload satellite owned by SpaceX/Seattle (US) in LEO that was launched on Wed, 07 May 2025 UTC via an FALCON 9 launch vehicle from the Air Force Eastern Test Range (AFETR). Payload-class satellites include a variety of spacecraft equipped with specific instruments for various scientific and technological missions. These include communications satellites like Starlink; space stations such as the ISS; scientific satellites like the Hubble; Earth observation satellites from companies like Planet Labs, Umbra, and HawkEye 360; GPS; miniature CubeSats for education and research; and military/defense satellites.

Loading next visibility...
Identifier
63840, 2025-093E
Orbit
LEO
Country
Flag of USUS
Related business
Manufacturer
SpaceX/Seattle
Mission
Operational Commercial Communications
Bus & Motor
STARLINK V2MO, Unknown motor
Mass
575 kg wet, ~530 kg dry
Launch date (UTC)
2025-05-07 (7 months ago)
Launch vehicle
FALCON 9
Launch site
Air Force Eastern Test Range (AFETR)
Object type
Payload
Rocket body
Debris
Shape & HBR
Box + 2 Pan, 17.7 m
Radar Cross Section
36.964 m², Large (>1 m²)

Expand to show TLE details & history
Last TLE update: 8 hours ago

TLE from 8 hours ago
0 STARLINK-33990
1 63840U 25093E   25349.87058581  .00010359  00000-0  38557-3 0  9994
2 63840  42.9988 191.2130 0001433 266.9264  93.1423 15.27566823 34932
Epoch: 2025-12-15T20:53Z
TLE epoch observation values (Epoch: 2025-12-15T20:53:38.613Z)
Latitude
-0.00008°
Longitude
153.03908°
Altitude
482.918 km
Speed
7.626 km/s
True Right ascension
12h 44m 51s
True Declination
0° 00' 00"
Sunlit
Object was in daylight at epoch
Visualization orbit readout
Latitude
Unknown
Longitude
Unknown
Altitude
Unknown
Speed
Unknown
Apparent Right ascension
Unknown
Apparent Declination
Unknown
Sunlit
N/A
Visualization observer readout
Local Sidereal Time
03:10:36
Azimuth
Unknown
Elevation
Unknown
Doppler factor
Unknown
Orbital elements
Apogee altitude
486.017 km
Perigee altitude
484.05 km
Semi-major axis
6,863.171 km
Eccentricity
0.00014
Inclination
42.9988°
RAAN
191.213°
Arg. of periapsis
266.9264°
True anomaly
93.1587°
Mean anomaly
93.1423°
Eccentric anomaly
93.1505°
Mean motion
3.8173 °/min
Orbital period
94.31 mins
BSTAR
0.00038557
Loading maneuver chart data...
Computing Atmospheric mass density...
Loading historical data...
Loading historical data...
Loading historical data...
Loading historical data...
Loading historical data...
Loading historical data...
Loading historical data...

Documentation

Showing up to 5 results
|